Location: Martz Observatory
(42.0083°N, 79.0667°W)
Time: 13:24:02
(UTC-04:00)

Daily predictions for brighter satellites

Satellite Brightness Start Highest point End
(mag) Time Altitude Azimuth Time Altitude Azimuth Time Altitude Azimuth
IRS-1A Rocket 4.4 18:43:52 10° SSE 18:49:42 71° ENE 18:55:37 10° N
Aureole 2 Rocket 3.6 18:51:10 10° N 18:54:41 30° ENE 18:58:17 10° SE
Meteor 2-1 Rocket 4.3 18:49:20 10° S 18:55:09 77° E 19:01:04 10° NNE
Cosmos 1269 Rocket 4.4 18:50:42 10° S 18:55:40 44° ESE 19:00:39 10° NNE
GRACE-2 4.3 18:53:58 10° SSE 18:56:19 33° E 18:58:39 10° NNE
Cosmos 1626 2.9 18:53:17 10° NNW 18:56:58 57° W 19:00:38 10° S
YAOGAN 1 2.5 18:53:30 10° SSE 18:57:46 65° ENE 19:02:04 10° N
Iridium 4 Rocket 4.2 18:54:41 10° SSE 18:59:56 40° E 19:05:23 10° NNE
BREEZE-M DEB (TANK) 1.0 18:58:03 10° SW 19:00:14 62° SE 19:02:13 11° ENE
Cosmos 1315 Rocket 2.8 18:56:08 10° N 19:00:14 73° E 19:04:21 10° SSE
Cosmos 468 4.5 18:55:10 10° SSW 19:00:22 79° ESE 19:05:38 10° NNE
GRACE-1 3.9 19:00:28 10° SSE 19:02:57 45° E 19:05:26 10° NNE
CZ-4 R/B 4.4 18:59:25 10° SSE 19:03:31 67° ENE 19:07:39 10° N
Cosmos 1484 Rocket 3.5 19:01:09 10° S 19:04:47 54° W 19:08:27 10° NNW
Cosmos 1452 Rocket 4.0 19:00:23 10° NNW 19:05:37 67° WSW 19:10:49 10° S
Cosmos 2333 4.2 19:01:47 10° NNW 19:07:31 68° ENE 19:13:15 10° SSE
Cosmos 44 Rocket 3.2 19:02:50 10° SSW 19:07:33 88° ESE 19:12:16 10° NNE
Cosmos 2084 3.8 19:06:32 10° NNW 19:10:05 36° NE 19:13:41 10° ESE
Cosmos 1908 3.2 19:07:51 10° S 19:11:46 85° E 19:15:41 10° N
Cosmos 1703 4.3 19:08:25 10° NNW 19:12:14 50° W 19:16:00 10° S
SPOT 3 Rocket 3.6 19:07:12 10° SSE 19:12:17 57° ENE 19:17:24 10° N
PSLV R/B 4.2 19:10:13 10° SW 19:13:01 30° SSE 19:15:01 15° ESE
Cosmos 2237 Rocket 3.1 19:08:29 10° N 19:13:24 29° NE 19:18:17 10° ESE
Cosmos 2221 2.5 19:09:43 10° S 19:14:01 71° E 19:18:23 10° NNE
Cosmos 1934 Rocket 4.5 19:08:29 10° SSE 19:14:16 38° E 19:20:03 10° NNE
Cosmos 921 Rocket 3.9 19:13:04 10° NNW 19:17:24 54° WSW 19:21:37 10° S
Cosmos 1821 Rocket 4.1 19:11:50 10° SSE 19:17:47 53° E 19:23:51 10° NNE
SJ-6B 4.4 19:20:59 15° ENE 19:20:59 15° ENE 19:23:00 10° NNE
Cosmos 2227 Rocket 3.1 19:16:31 10° SSE 19:21:08 26° ESE 19:25:46 10° NE
Lacrosse 5 rocket 3.9 19:20:30 10° NNW 19:21:33 11° N 19:22:35 10° NNE
H-2A R/B 4.0 19:20:16 14° ESE 19:22:23 22° ENE 19:25:25 10° NNE
Cosmos 2239 Rocket 4.5 19:16:34 10° S 19:22:33 58° E 19:28:35 10° NNE
SKYMED 2 3.5 19:20:38 10° NNE 19:24:59 80° E 19:29:20 10° S
SL-16 R/B 3.7 19:22:53 10° N 19:26:34 17° NE 19:28:01 16° ENE
Cosmos 2098 Rocket 3.6 19:22:34 10° S 19:27:21 67° E 19:33:27 10° NNE
Cosmos 158 Rocket 4.3 19:22:40 10° SSW 19:27:43 68° WNW 19:32:57 10° NNE
GP-B 4.4 19:27:35 10° NNW 19:31:49 43° W 19:36:00 10° SSW
Cosmos 2360 Rocket 4.2 19:27:41 10° NW 19:32:38 32° WSW 19:37:34 10° SSW
Cosmos 1300 3.0 19:29:31 10° SSE 19:33:09 44° E 19:36:49 10° NNE
BREEZE-M DEB (TANK) 4.1 19:34:15 10° WSW 19:35:16 13° SW 19:36:19 10° S
APEX 4.4 19:34:22 10° SW 19:37:05 30° WNW 19:39:35 10° N
Gbstr 26 Del rocket 3.7 19:32:48 10° WNW 19:37:44 74° SW 19:43:47 11° SE
Cosmos 1980 3.9 19:32:53 10° NNW 19:38:21 46° ENE 19:43:00 14° SE
Cosmos 1048 Rocket 4.4 19:34:50 10° SSW 19:39:54 64° WNW 19:45:01 10° NNE
ALOS 2.2 19:35:18 10° SSE 19:39:57 73° ENE 19:44:38 10° N
FENGYUN 3A 3.6 19:36:58 10° SSE 19:42:21 75° ENE 19:47:46 10° N
Meteor 2-10 3.9 19:39:19 10° S 19:44:15 60° E 19:49:21 10° NNE
Abrixas 3.4 19:46:05 10° W 19:47:49 26° NNW 19:47:49 26° NNW
Cosmos 2123 Rocket 4.0 19:42:35 10° N 19:48:47 62° E 19:55:00 10° SSE
COSMOS 2428 3.5 19:44:58 10° NNW 19:50:29 52° WSW 19:55:58 10° S
Cosmos 2251 Rocket 3.9 19:45:37 10° S 19:50:30 40° ESE 19:54:10 17° NE
Meteor 2-3 Rocket 4.4 19:46:44 10° N 19:51:54 33° ENE 19:53:21 29° E
Cosmos 1605 Rocket 4.0 19:46:32 10° SSE 19:52:22 50° E 19:58:13 10° NNE
Cosmos 2219 3.7 19:47:34 10° SW 19:53:15 63° WNW 19:58:57 10° NNE
Cosmos 2333 Rocket 2.2 19:47:33 10° NNW 19:53:20 86° ENE 19:59:06 10° SSE
Cosmos 1470 Rocket 4.3 19:49:35 10° N 19:53:14 32° ENE 19:53:14 32° ENE
NOSS 0 Rocket 3.8 19:49:18 10° NNW 19:55:31 81° ENE 20:01:39 10° SSE
Cosmos 2297 Rocket 2.4 19:52:41 10° S 19:58:00 44° ESE 20:00:56 24° NE
Cosmos 1726 3.0 19:54:57 10° SSW 19:58:32 51° W 20:02:08 10° N
Hubble Space Telescope 3.2 19:58:27 10° SSW 19:59:49 11° S 20:00:30 11° SSE
USA 267 4.3 20:04:44 23° SE 20:04:44 23° SE 20:09:19 10° S
Sich 1 3.2 20:00:35 10° N 20:04:58 76° W 20:09:23 10° S
SAR-Lupe-3 4.5 20:01:48 10° NNE 20:05:24 86° WNW 20:08:58 10° SSW
Cosmos 2082 3.8 20:03:52 10° S 20:09:25 54° ESE 20:12:12 29° NE
Thor Agena Rocket 3.4 20:06:12 10° NNE 20:11:18 83° ESE 20:16:21 10° SSW
Cosmos 1331 Rocket 3.9 20:07:11 10° NNW 20:12:26 88° WSW 20:16:38 16° SSE
COSMO-SKYMED 1 4.5 20:09:04 10° N 20:12:54 31° WNW 20:16:42 10° SW
Resurs 01 Rocket 3.5 20:21:17 18° NNE 20:21:17 18° NNE 20:22:39 10° N
Cosmos 2219 Rocket 3.1 20:13:23 10° NW 20:18:46 49° WSW 20:24:09 10° S
Abrixas rocket 3.7 20:21:52 10° WNW 20:23:56 33° NW 20:23:56 33° NW
Cosmos 1447 Rocket 4.4 20:19:41 10° N 20:26:00 66° E 20:29:04 31° SSE
FengYun 1-2 T 4.3 20:21:42 10° S 20:27:12 77° WSW 20:32:42 10° NNW
BREEZE-M DEB (TANK) 2.9 20:21:23 10° WNW 20:29:38 61° N 20:29:58 59° NNE
CZ-4C R/B 3.6 20:25:34 10° WSW 20:30:27 35° NW 20:35:48 11° NNE
Cosmos 2228 Rocket 3.1 20:29:37 10° S 20:34:09 84° W 20:38:45 10° N
Cosmos 1328 Rocket 3.9 20:31:36 10° SSW 20:35:58 65° W 20:40:19 10° N
Cosmos 1633 Rocket 4.3 20:32:29 10° NNW 20:36:40 42° W 20:40:50 10° SSW
USA 234 4.4 20:39:19 26° NNE 20:40:35 28° NNE 20:45:58 10° NW
BREEZE-M R/B 4.3 20:37:51 10° WSW 20:39:11 28° WSW 20:39:11 28° WSW
Cosmos 1302 Rocket 3.9 20:37:22 10° NNW 20:42:37 85° WSW 20:42:54 79° SSW
Meteor 1-27 4.2 20:42:55 10° S 20:48:39 86° W 20:54:30 10° N
Cosmos 2237 Rocket 3.2 20:52:14 10° NW 20:57:38 45° WSW 21:00:17 27° SSW
Lacrosse 5 rocket 4.1 20:59:29 10° NNW 21:00:02 12° NNW 21:00:02 12° NNW
MOS 1-B Rocket 4.1 21:03:12 60° SSW 21:04:06 70° WSW 21:10:22 10° NNW
Cosmos 2227 Rocket 3.1 20:59:30 10° SW 21:04:54 45° WNW 21:08:05 23° N
SL-16 R/B 2.8 21:05:43 10° NNW 21:09:56 51° NNW 21:09:56 51° NNW
ATLAS 5 CENTAUR R/B 4.3 21:15:26 10° NNW 21:17:12 17° N 21:17:12 17° N
Cosmos 2297 Rocket 3.9 21:37:21 10° WSW 21:42:12 29° NW 21:42:52 28° NW
